Retour au catalogue

STARLINK-2361

ActifCommunicationsVLEO
NORAD 47901·PAYLOAD·🇺🇸 United States

Lancé Mar 14, 2021 depuis Cape Canaveral Space Force Station

Loading…

Prochains Passages (prochaines 24 heures)

TLE

FraisSource: CelesTrak SupGP

Époque: Sep 15, 2026, 01:20 UTC

1 47901C 21021AT  26258.05604167  .00034160  00000+0  67276-3 0  2581
2 47901  53.1511  84.7312 0000717 145.0080  22.2356 15.46622086    18

Suivez STARLINK-2361 en temps réel avec AllMySat

Download on the App Store